Wind_Speed
12 12 12 11 10 8 7 4 3 1 1 2 3 4 5 6 7 8 8 8 7 7 7 7 6 7 8 9 10 9 9 10 11 10 10 10 10 10 9 8 8 7 6
13 13 13 12 11 10 8 6 4 3 3 3 4 5 6 6 7 7 8 7 7 7 6 6 6 6 7 8 9 10 9 9 9 10 10 10 10 10 10 9 8 7 7
14 14 13 13 12 11 9 7 6 6 5 5 5 6 6 7 7 7 7 7 6 6 6 6 6 6 6 7 8 9 9 9 9 10 11 11 11 11 11 10 9 8 7
14 14 14 13 13 13 11 9 8 8 7 7 6 7 7 7 7 6 6 6 6 6 6 6 6 6 6 5 6 7 8 9 9 9 10 12 12 12 12 11 10 9 8
14 14 14 14 14 14 13 11 10 10 9 8 8 8 8 7 7 6 6 6 6 5 5 5 6 6 5 5 6 7 7 8 8 8 10 11 12 12 12 12 12 10 9
13 14 15 15 15 14 14 12 11 11 10 10 10 9 8 8 7 6 6 6 6 5 5 4 5 4 4 5 5 6 6 6 7 9 9 10 10 11 12 12 12 11 10
14 14 15 15 15 15 14 14 13 12 11 11 10 10 10 9 8 7 6 6 6 5 4 3 3 3 3 4 4 5 4 5 6 7 9 9 9 10 10 12 12 12 12
13 14 14 14 15 14 14 14 13 13 12 12 11 10 10 9 8 7 6 5 5 4 4 4 3 3 3 3 4 4 3 4 4 6 7 8 9 10 11 11 11 12 13
12 13 13 13 14 14 14 13 13 13 12 12 12 11 10 9 8 7 6 5 4 4 3 3 3 3 2 2 2 2 2 3 3 4 6 8 8 9 10 9 10 11 12
11 12 13 13 13 13 13 13 13 13 12 12 12 11 10 10 9 8 7 5 5 4 3 2 2 1 1 1 1 2 2 2 3 4 6 6 8 8 9 10 10 11 12
10 11 12 13 13 13 14 13 13 13 13 12 11 11 10 10 9 8 7 5 5 4 3 2 2 1 0 0 0 0 2 3 3 4 4 5 6 7 9 9 9 10 11
9 10 10 11 12 12 13 13 12 12 12 12 11 11 10 9 9 8 8 7 5 4 3 2 1 1 1 1 1 2 2 3 5 5 5 6 7 8 8 9 10 11 11
7 8 9 10 10 11 11 11 11 11 11 11 10 10 9 9 8 8 7 6 6 5 4 3 2 2 3 3 3 3 4 4 5 6 7 7 8 8 9 10 11 11 11
6 7 8 8 9 10 10 10 10 10 10 10 9 9 9 9 8 7 7 6 5 4 4 4 3 3 4 4 4 4 5 5 6 7 8 8 9 9 9 10 11 12 12
5 6 7 7 8 9 9 9 9 9 9 8 8 8 8 8 8 7 7 6 6 5 5 5 5 5 4 4 5 5 6 6 6 7 9 10 10 10 11 12 13 13 13
4 5 5 6 6 7 7 8 8 8 8 8 8 7 7 7 7 7 7 7 7 6 6 5 6 6 6 6 6 7 7 8 7 8 9 10 11 12 13 14 15 15 16
3 3 4 4 4 5 6 6 7 7 8 7 7 7 7 7 7 7 7 7 7 7 6 6 7 7 7 7 7 8 8 9 10 11 11 12 12 13 14 15 16 17 18
1 1 2 2 3 3 4 4 5 5 6 7 7 7 7 7 7 7 8 7 8 8 8 8 8 8 8 9 9 9 10 11 12 13 14 15 15 16 17 18 19 20 22
1 1 1 1 1 2 2 2 3 4 5 5 6 7 7 8 8 8 8 8 9 9 10 9 9 10 10 10 11 11 12 13 14 15 16 17 18 19 20 21 22 23 25
3 3 2 2 2 2 2 2 3 4 5 6 6 7 7 8 9 9 9 9 10 11 11 11 11 11 11 12 13 13 14 15 16 17 18 19 21 22 23 24 25 26 28
6 5 4 4 4 3 3 4 4 5 6 7 7 7 8 9 10 11 11 11 12 13 13 13 13 13 14 15 15 16 16 17 18 19 21 22 24 25 27 28 29 30 31
8 7 6 6 5 5 5 6 6 7 7 8 9 10 10 11 12 12 12 13 14 15 15 15 16 16 16 17 17 19 19 20 21 22 24 25 27 28 30 32 33 34 34
9 9 8 8 7 7 8 8 8 9 10 10 11 12 12 13 13 14 14 15 16 17 18 18 18 19 19 20 20 21 22 23 25 26 27 29 30 32 34 35 36 37 39
11 11 10 10 10 10 10 10 11 12 12 13 13 13 14 14 15 16 16 17 18 19 20 20 20 21 21 22 22 24 25 27 28 30 31 32 34 36 37 39 40 41 42
14 13 13 12 12 12 12 13 13 14 14 15 15 15 16 17 17 18 19 20 21 21 22 22 22 23 24 25 27 28 29 31 32 33 35 36 37 38 39 41 43 45 46
16 15 15 15 15 15 15 15 16 16 17 17 17 18 19 19 20 21 22 22 23 24 24 25 25 26 27 29 30 32 33 34 35 37 39 40 40 41 41 42 45 47 48
Wind_Direction
16 18 18 16 14 10 8 8 12 16 147 159 169 171 169 172 179 183 184 185 188 193 198 200 205 211 209 213 214 216 217 221 218 219 218 216 211 209 214 216 223 222 214
24 24 24 24 24 23 28 36 49 72 101 123 134 140 148 158 165 171 175 179 182 185 188 193 198 201 207 212 216 219 222 224 218 219 220 217 213 212 213 214 217 219 219
31 31 31 32 31 32 38 48 65 79 95 109 120 131 139 148 155 160 166 170 175 180 184 189 192 198 204 212 218 220 221 223 222 220 219 220 218 217 215 213 215 220 221
36 36 37 37 38 41 48 58 72 83 90 102 114 122 129 137 145 153 159 166 174 177 180 184 184 190 200 209 216 220 221 223 224 220 220 221 223 223 219 216 214 216 217
39 38 39 41 43 47 53 63 73 80 85 93 104 115 121 126 133 142 151 163 171 174 175 180 183 189 196 204 213 219 220 220 218 219 222 224 223 223 221 217 217 215 212
41 41 42 43 47 52 56 64 73 79 84 88 94 102 110 116 118 124 134 145 153 161 167 178 180 185 196 207 216 221 219 221 217 220 220 221 220 219 218 215 215 213 216
44 45 44 47 52 55 60 65 72 78 82 86 90 94 99 102 106 114 121 132 141 147 153 166 186 194 202 211 212 216 219 228 220 220 217 214 210 210 212 215 217 221 224
46 47 48 51 54 58 62 66 69 74 78 84 89 94 97 97 98 105 111 119 130 144 151 151 157 172 184 196 198 199 212 222 220 214 209 207 206 208 210 218 224 228 231
49 49 50 53 56 60 63 66 70 72 76 81 86 90 92 93 93 95 101 106 111 122 135 133 134 152 151 165 169 176 183 195 181 193 196 199 204 209 213 218 226 229 233
51 51 52 54 58 61 64 67 69 72 75 76 80 85 88 88 87 87 95 98 100 104 107 109 117 102 103 106 155 191 183 180 176 181 188 201 209 212 217 225 230 234 238
53 55 55 56 59 62 65 68 70 72 72 73 77 79 82 82 80 80 83 93 98 99 99 102 99 66 78 236 272 229 220 215 214 209 208 212 213 218 226 231 239 244 250
58 59 58 59 60 63 66 70 72 73 73 73 74 75 76 75 73 72 71 72 74 75 78 89 80 33 353 317 272 282 274 246 235 235 240 237 231 232 235 240 244 247 253
64 63 61 62 62 63 65 66 69 69 72 72 71 71 70 68 64 63 60 57 56 57 51 41 26 2 339 327 312 290 281 275 261 252 250 247 245 247 251 251 250 252 254
71 68 64 65 64 63 63 63 66 67 69 71 69 68 64 60 55 50 47 44 41 34 24 15 4 348 335 327 317 301 292 281 272 264 261 259 258 257 257 256 257 257 255
78 75 70 68 67 66 65 64 64 65 64 65 63 60 54 50 46 39 33 27 21 11 1 351 341 334 324 315 314 308 300 294 281 272 265 265 266 267 268 268 267 265 262
84 80 77 73 70 67 64 61 59 59 58 56 54 49 46 41 36 29 25 21 13 5 358 346 336 327 319 314 309 305 300 295 289 283 275 272 272 272 271 272 271 270 270
88 83 79 74 67 61 58 57 55 54 52 48 44 40 33 27 21 16 13 8 7 2 351 342 332 325 320 316 313 307 301 295 288 283 281 279 278 277 276 275 274 273 274
106 87 73 61 50 47 47 49 50 46 42 37 33 29 23 17 12 8 4 3 2 357 349 341 334 325 317 312 308 304 301 297 292 288 285 282 281 282 282 281 278 276 275
233 269 323 350 7 10 15 23 25 22 17 14 12 11 10 7 3 0 358 356 352 350 346 338 332 327 321 315 311 306 301 297 295 292 289 286 284 284 284 284 283 281 279
244 260 277 279 294 316 330 341 348 350 351 354 350 352 355 352 349 347 345 342 341 339 338 335 332 327 323 319 315 311 307 303 299 296 292 291 289 287 286 285 284 283 282
245 257 270 271 278 287 300 316 322 325 329 332 332 332 335 334 334 334 333 332 330 329 328 328 327 323 320 317 314 312 309 305 303 299 295 293 291 289 289 287 285 284 283
246 256 265 267 271 280 291 303 308 311 316 319 321 322 323 324 325 326 324 325 324 324 322 320 320 319 316 315 312 308 305 302 300 297 295 293 291 291 290 289 287 286 285
248 253 260 266 271 278 286 293 298 303 306 309 311 314 315 315 316 317 316 318 319 319 318 317 316 313 311 310 309 307 305 302 300 299 297 296 295 294 292 291 289 287 285
251 254 259 265 271 278 284 290 294 297 301 303 305 307 309 311 313 314 313 315 316 316 316 316 313 311 310 309 308 308 306 303 301 299 298 297 296 296 295 293 291 288 287
252 256 259 264 270 276 282 288 292 295 297 299 300 301 304 306 308 309 309 310 312 312 313 313 311 310 309 308 308 307 305 303 301 299 298 298 296 295 295 293 291 290 289
253 256 260 265 270 275 280 286 290 292 294 296 297 299 300 302 304 305 306 307 309 309 310 309 308 307 306 306 306 306 305 303 301 300 299 298 297 296 294 294 293 292 291
Height
5865 5863 5860 5858 5856 5854 5852 5851 5851 5850 5851 5851 5852 5853 5855 5857 5858 5860 5863 5865 5866 5868 5869 5871 5872 5874 5875 5877 5878 5879 5881 5882 5883 5885 5886 5887 5889 5890 5892 5893 5893 5894 5895
5866 5863 5861 5858 5856 5854 5852 5851 5851 5851 5851 5851 5852 5853 5855 5857 5858 5860 5862 5864 5866 5868 5869 5870 5872 5873 5874 5876 5877 5878 5879 5881 5882 5883 5884 5886 5887 5889 5890 5891 5892 5893 5894
5867 5864 5862 5859 5857 5855 5853 5852 5851 5851 5851 5852 5852 5854 5855 5857 5859 5860 5862 5864 5866 5867 5869 5870 5871 5872 5873 5875 5876 5877 5878 5879 5880 5881 5883 5884 5885 5886 5888 5890 5891 5892 5893
5868 5866 5863 5861 5858 5856 5854 5853 5852 5852 5852 5853 5853 5854 5856 5857 5859 5861 5862 5864 5866 5867 5868 5869 5870 5872 5873 5874 5875 5876 5877 5878 5879 5879 5880 5881 5882 5883 5885 5887 5889 5891 5892
5870 5867 5865 5862 5860 5858 5856 5855 5854 5854 5854 5854 5855 5856 5857 5858 5860 5861 5863 5864 5866 5867 5868 5869 5870 5871 5872 5873 5874 5875 5875 5876 5877 5878 5878 5878 5879 5880 5882 5885 5887 5889 5891
5872 5869 5867 5864 5862 5860 5858 5857 5856 5855 5855 5856 5856 5857 5858 5860 5861 5862 5864 5865 5866 5867 5868 5869 5870 5871 5872 5872 5873 5873 5874 5875 5875 5875 5875 5875 5875 5877 5879 5882 5885 5887 5890
5873 5871 5869 5867 5864 5862 5861 5859 5859 5858 5858 5858 5858 5859 5860 5861 5862 5863 5864 5866 5867 5868 5869 5869 5870 5871 5872 5872 5872 5873 5873 5873 5873 5873 5873 5873 5873 5875 5877 5880 5884 5886 5888
5875 5873 5871 5869 5867 5865 5863 5862 5861 5861 5860 5860 5861 5861 5862 5864 5864 5865 5866 5867 5867 5868 5869 5870 5870 5871 5871 5872 5872 5872 5872 5872 5872 5871 5871 5872 5873 5875 5877 5880 5882 5884 5886
5877 5875 5873 5871 5870 5868 5866 5865 5864 5864 5863 5863 5863 5864 5864 5865 5866 5866 5867 5868 5868 5869 5870 5870 5871 5871 5871 5872 5872 5872 5872 5872 5871 5871 5871 5872 5874 5876 5878 5879 5881 5882 5884
5879 5877 5876 5874 5872 5871 5869 5868 5867 5867 5866 5866 5866 5866 5867 5867 5868 5868 5868 5869 5869 5870 5870 5871 5871 5871 5872 5872 5872 5872 5872 5872 5872 5872 5872 5873 5875 5876 5877 5879 5880 5880 5881
5881 5879 5878 5876 5875 5873 5872 5871 5870 5870 5869 5869 5869 5869 5869 5869 5869 5870 5870 5870 5871 5871 5871 5871 5871 5871 5872 5872 5872 5872 5872 5872 5873 5873 5873 5874 5875 5876 5877 5877 5878 5878 5878
5883 5881 5880 5879 5878 5876 5875 5874 5873 5873 5872 5872 5871 5871 5871 5871 5871 5871 5871 5871 5871 5871 5871 5871 5871 5871 5871 5871 5871 5872 5872 5872 5872 5873 5873 5874 5874 5875 5876 5876 5877 5877 5876
5884 5883 5882 5881 5880 5879 5878 5877 5876 5875 5875 5874 5874 5874 5874 5873 5873 5873 5873 5873 5873 5872 5872 5872 5871 5871 5871 5871 5871 5871 5871 5871 5871 5872 5872 5873 5873 5874 5874 5874 5875 5875 5874
5885 5885 5884 5883 5882 5881 5880 5879 5879 5878 5877 5877 5876 5876 5876 5875 5875 5874 5874 5874 5873 5873 5873 5872 5871 5871 5870 5870 5870 5869 5869 5869 5869 5870 5870 5871 5871 5872 5872 5872 5873 5873 5872
5887 5886 5885 5885 5884 5883 5882 5882 5881 5880 5879 5879 5878 5878 5877 5877 5876 5875 5875 5874 5874 5873 5873 5872 5871 5870 5869 5869 5868 5868 5867 5867 5867 5867 5868 5868 5869 5869 5869 5869 5870 5870 5870
5888 5887 5887 5886 5886 5885 5884 5883 5883 5882 5881 5881 5880 5879 5879 5878 5877 5876 5875 5874 5874 5873 5872 5871 5870 5869 5868 5867 5866 5866 5865 5864 5864 5864 5865 5865 5866 5866 5866 5866 5866 5866 5866
5889 5888 5888 5887 5887 5886 5885 5885 5884 5883 5883 5882 5881 5881 5880 5879 5878 5877 5876 5875 5873 5872 5871 5870 5868 5867 5866 5865 5864 5863 5862 5862 5861 5861 5861 5862 5862 5862 5862 5862 5862 5862 5862
5889 5889 5888 5888 5887 5887 5886 5886 5885 5885 5884 5883 5882 5881 5881 5880 5878 5877 5876 5875 5873 5872 5870 5869 5867 5866 5864 5863 5862 5861 5860 5859 5859 5858 5858 5858 5858 5858 5858 5858 5857 5857 5857
5889 5889 5888 5888 5888 5887 5887 5886 5886 5885 5884 5884 5883 5882 5881 5880 5879 5877 5876 5874 5873 5871 5870 5868 5866 5864 5862 5861 5860 5859 5858 5856 5855 5855 5854 5854 5854 5854 5853 5853 5852 5851 5850
5888 5888 5888 5888 5887 5887 5887 5886 5886 5885 5884 5884 5883 5882 5881 5880 5878 5877 5875 5874 5872 5870 5868 5866 5864 5862 5860 5859 5858 5856 5855 5853 5852 5851 5850 5850 5849 5848 5847 5847 5846 5845 5843
5887 5887 5887 5887 5887 5886 5886 5886 5885 5885 5884 5883 5882 5881 5880 5879 5877 5876 5874 5872 5870 5868 5866 5864 5862 5860 5858 5857 5855 5853 5852 5850 5848 5847 5845 5844 5843 5842 5840 5839 5838 5836 5835
5885 5885 5885 5885 5885 5885 5885 5885 5884 5883 5882 5882 5881 5880 5878 5877 5875 5874 5872 5870 5868 5866 5864 5862 5860 5858 5856 5853 5851 5849 5848 5846 5844 5843 5840 5838 5837 5835 5833 5831 5829 5827 5825
5883 5883 5884 5884 5884 5884 5883 5883 5882 5881 5880 5880 5879 5877 5876 5875 5873 5871 5869 5868 5865 5863 5861 5859 5857 5854 5852 5849 5847 5845 5842 5840 5838 5836 5834 5832 5829 5827 5824 5821 5818 5816 5814
5880 5881 5881 5881 5881 5881 5881 5880 5880 5879 5878 5877 5876 5875 5873 5872 5870 5868 5866 5864 5862 5859 5857 5854 5852 5850 5847 5844 5842 5840 5837 5834 5832 5828 5826 5824 5820 5817 5813 5809 5806 5803 5801
5877 5878 5878 5878 5878 5878 5878 5877 5876 5876 5875 5874 5872 5871 5870 5868 5866 5864 5862 5860 5858 5855 5853 5850 5847 5844 5842 5839 5836 5833 5830 5827 5824 5820 5817 5814 5811 5807 5803 5798 5793 5789 5786
5874 5874 5875 5875 5875 5874 5874 5873 5873 5872 5871 5870 5868 5867 5865 5864 5862 5859 5857 5855 5853 5850 5847 5845 5842 5839 5835 5832 5829 5825 5822 5818 5815 5811 5807 5803 5799 5795 5792 5788 5781 5776 5772